Weather History for KTOP - August, 2013

Change the Weather History Date:

Friday, August 23, 2013

  Actual Average Record
Temperature  
Mean Temperature 81 °F 77 °F  
Max Temperature 92 °F 88 °F 105 °F (1936)
Min Temperature 70 °F 65 °F 43 °F (1891)
Degree Days  
Heating Degree Days 0 0  
Month to date heating degree days 0 0  
Since 1 June heating degree days 5 8  
Since 1 July heating degree days 0 0  
Cooling Degree Days 16 12  
Month to date cooling degree days 236 302  
Year to date cooling degree days 1142 1144  
Since 1 June cooling degree days 997 1018  
Growing Degree Days 30 (Base 50)    
Moisture  
Dew Point 68 °F    
Average Humidity 69    
Maximum Humidity 93    
Minimum Humidity 44    
Precipitation  
Precipitation 0.00 in 0.14 in 1.76 in (1962)
Month to date precipitation 5.19 3.14  
Year to date precipitation 24.45 25.47  
Snow  
Snow 0.00 in 0.00 in 0.00 in ()
Month to date snowfall 0.0 0.0  
Year to date snowfall 24.2 11.3  
Since 1 July snowfall 0.0 0.0  
Snow Depth 0.00 in    
Sea Level Pressure  
Sea Level Pressure 30.02 in    
Wind  
Wind Speed 6 mph (SE)    
Max Wind Speed 17 mph    
Max Gust Speed 22 mph    
Visibility 9 miles    
Events      
T = Trace of Precipitation, MM = Missing Value Source: NWS Daily Summary

Daily Weather History Graph

Daily Weather History Graph

Search for Another Location

Airport or City:

Trip Planner

Search our weather history database for the weather conditions in past years. The results will help you decide how hot, cold, wet, or windy it might be!

Date:

Astronomy

Aug. 23, 2013 Rise Set
Actual Time 6:43 AM CDT 8:06 PM CDT
Civil Twilight 6:15 AM CDT 8:33 PM CDT
Nautical Twilight 5:41 AM CDT 9:07 PM CDT
Astronomical Twilight 5:06 AM CDT 9:42 PM CDT
Moon 9:27 PM CDT (8/23) 9:37 AM CDT (8/23)
Length of Visible Light 14h 18m
Length of Day
13h 22m
Waning Gibbous, 91% of the Moon is Illuminated
Aug 23
Waning Gibbous
Aug 28
Last Quarter
Sep 5
New
Sep 12
First Quarter
Sep 19
Full

Hourly Weather History & Observations

Time (CDT) Temp. Heat Index Dew Point Humidity Pressure Visibility Wind Dir Wind Speed Gust Speed Precip Events Conditions
12:53 AM 73.9 °F - 70.0 °F 87% 30.03 in 10.0 mi ENE 3.5 mph - N/A   Clear
1:53 AM 72.0 °F - 69.1 °F 91% 30.03 in 7.0 mi Calm Calm - N/A   Clear
2:53 AM 71.1 °F - 68.0 °F 90% 30.04 in 8.0 mi Calm Calm - N/A   Clear
3:53 AM 70.0 °F - 66.0 °F 87% 30.04 in 9.0 mi Calm Calm - N/A   Clear
4:53 AM 71.1 °F - 66.9 °F 87% 30.04 in 8.0 mi Calm Calm - N/A   Clear
5:53 AM 71.1 °F - 68.0 °F 90% 30.04 in 8.0 mi SE 3.5 mph - N/A   Clear
6:53 AM 71.1 °F - 68.0 °F 90% 30.06 in 6.0 mi Calm Calm - N/A   Clear
7:53 AM 73.9 °F - 70.0 °F 87% 30.06 in 6.0 mi Calm Calm - N/A   Clear
8:53 AM 75.9 °F - 71.1 °F 85% 30.07 in 8.0 mi Calm Calm - N/A   Clear
9:53 AM 82.9 °F 87.5 °F 71.1 °F 67% 30.06 in 10.0 mi East 4.6 mph - N/A   Clear
10:53 AM 86.0 °F 90.1 °F 69.1 °F 57% 30.06 in 10.0 mi SSE 9.2 mph - N/A   Clear
11:53 AM 89.1 °F 93.7 °F 69.1 °F 52% 30.05 in 10.0 mi ESE 10.4 mph - N/A   Clear
12:53 PM 91.0 °F 95.2 °F 68.0 °F 47% 30.03 in 10.0 mi SE 11.5 mph - N/A   Clear
1:53 PM 91.9 °F 95.9 °F 68.0 °F 45% 30.01 in 10.0 mi SSE 11.5 mph 17.3 mph N/A   Partly Cloudy
2:53 PM 91.9 °F 95.4 °F 66.9 °F 44% 30.00 in 10.0 mi SE 15.0 mph - N/A   Mostly Cloudy
3:53 PM 91.0 °F 94.3 °F 66.9 °F 45% 29.99 in 10.0 mi SE 15.0 mph - N/A   Partly Cloudy
4:53 PM 89.1 °F 92.9 °F 68.0 °F 50% 29.98 in 10.0 mi SSE 9.2 mph - N/A   Partly Cloudy
5:53 PM 88.0 °F 92.9 °F 70.0 °F 55% 29.98 in 10.0 mi SE 6.9 mph - N/A   Clear
6:53 PM 86.0 °F 90.1 °F 69.1 °F 57% 29.98 in 10.0 mi SE 9.2 mph - N/A   Clear
7:53 PM 82.0 °F 84.9 °F 68.0 °F 62% 29.98 in 10.0 mi ESE 6.9 mph - N/A   Clear
8:53 PM 80.1 °F 82.3 °F 66.9 °F 64% 29.99 in 10.0 mi ESE 6.9 mph - N/A   Clear
9:53 PM 79.0 °F - 66.9 °F 66% 30.00 in 10.0 mi ESE 6.9 mph - N/A   Clear
10:53 PM 78.1 °F - 68.0 °F 71% 30.01 in 10.0 mi East 5.8 mph - N/A   Clear
11:53 PM 75.9 °F - 66.9 °F 74% 30.01 in 10.0 mi ESE 4.6 mph - N/A   Clear